Location: Palomar Mountain Lodge
(33.3110°N, 116.8495°W)
Time: 17:16:50
(UTC-08:00)

CZ-2C R/B - Pass Details

Date: 12 July 2018
Orbit: 703 x 909 km, 98.2° (Epoch: 15 December)

Event Time Altitude Azimuth Distance (km) Brightness Sun altitude
Exits shadow 22:29:18 44° 80° (E) 1,165 3.7 -25.1°
Maximum altitude 22:29:30 44° 73° (ENE) 1,160 3.7 -25.1°
Drops below altitude 10° 22:34:34 10° 3° (N) 2,412 6.2 -25.7°
Sets 22:36:56 0° 357° (N) 3,315 7.2 -26.0°
